TimeCST,TemperatureF,Dew PointF,Humidity,Sea Level PressureIn,VisibilityMPH,Wind Direction,Wind SpeedMPH,Gust SpeedMPH,PrecipitationIn,Events,Conditions,WindDirDegrees,DateUTC
12:15 AM,44.6,30.2,57,29.91,10.0,SW,6.9,-,N/A,,Clear,230,2014-01-21 06:15:00
12:35 AM,42.8,30.2,61,29.91,10.0,WSW,4.6,-,N/A,,Clear,240,2014-01-21 06:35:00
12:55 AM,42.8,30.2,61,29.90,10.0,WSW,5.8,-,N/A,,Clear,250,2014-01-21 06:55:00
1:15 AM,42.8,30.2,61,29.90,10.0,SW,5.8,-,N/A,,Clear,230,2014-01-21 07:15:00
1:35 AM,41.0,30.2,65,29.89,10.0,SW,5.8,-,N/A,,Clear,230,2014-01-21 07:35:00
1:55 AM,41.0,30.2,65,29.89,10.0,WSW,5.8,-,N/A,,Clear,240,2014-01-21 07:55:00
2:15 AM,41.0,30.2,65,29.88,10.0,SW,5.8,-,N/A,,Clear,230,2014-01-21 08:15:00
2:35 AM,39.2,30.2,70,29.87,10.0,SW,5.8,-,N/A,,Clear,230,2014-01-21 08:35:00
2:55 AM,39.2,30.2,70,29.86,10.0,SSW,4.6,-,N/A,,Clear,210,2014-01-21 08:55:00
3:15 AM,39.2,30.2,70,29.86,10.0,SSW,5.8,-,N/A,,Clear,200,2014-01-21 09:15:00
3:35 AM,39.2,30.2,70,29.85,10.0,SSW,5.8,-,N/A,,Clear,210,2014-01-21 09:35:00
3:55 AM,37.4,30.2,75,29.84,10.0,SW,5.8,-,N/A,,Clear,220,2014-01-21 09:55:00
4:15 AM,39.2,32.0,75,29.83,10.0,SW,4.6,-,N/A,,Clear,220,2014-01-21 10:15:00
4:35 AM,39.2,33.8,81,29.82,10.0,SSW,5.8,-,N/A,,Mostly Cloudy,200,2014-01-21 10:35:00
4:55 AM,39.2,33.8,81,29.82,10.0,SSW,6.9,-,N/A,,Mostly Cloudy,200,2014-01-21 10:55:00
5:15 AM,41.0,33.8,76,29.82,10.0,WSW,5.8,-,N/A,,Mostly Cloudy,250,2014-01-21 11:15:00
5:35 AM,42.8,35.6,76,29.82,10.0,WSW,8.1,-,N/A,,Mostly Cloudy,240,2014-01-21 11:35:00
5:55 AM,42.8,33.8,70,29.82,10.0,WSW,8.1,-,N/A,,Partly Cloudy,240,2014-01-21 11:55:00
6:15 AM,42.8,35.6,76,29.82,10.0,WSW,6.9,-,N/A,,Clear,250,2014-01-21 12:15:00
6:35 AM,42.8,35.6,76,29.82,10.0,WSW,8.1,-,N/A,,Mostly Cloudy,250,2014-01-21 12:35:00
6:55 AM,42.8,35.6,76,29.82,10.0,WSW,6.9,-,N/A,,Overcast,250,2014-01-21 12:55:00
7:15 AM,42.8,37.4,81,29.82,10.0,West,8.1,-,N/A,,Overcast,270,2014-01-21 13:15:00
7:35 AM,44.6,37.4,76,29.83,10.0,West,8.1,-,N/A,,Scattered Clouds,280,2014-01-21 13:35:00
7:55 AM,44.6,37.4,76,29.83,10.0,West,11.5,17.3,N/A,,Clear,280,2014-01-21 13:55:00
8:15 AM,44.6,37.4,76,29.84,10.0,WNW,12.7,-,N/A,,Clear,290,2014-01-21 14:15:00
8:35 AM,46.4,35.6,66,29.85,10.0,NW,18.4,23.0,N/A,,Clear,310,2014-01-21 14:35:00
8:55 AM,48.2,32.0,54,29.86,10.0,NW,17.3,25.3,N/A,,Clear,310,2014-01-21 14:55:00
9:15 AM,48.2,30.2,50,29.87,10.0,NNW,20.7,26.5,N/A,,Clear,330,2014-01-21 15:15:00
9:35 AM,48.2,28.4,46,29.87,10.0,WNW,20.7,27.6,N/A,,Clear,300,2014-01-21 15:35:00
9:55 AM,48.2,28.4,46,29.88,10.0,NW,15.0,25.3,N/A,,Clear,320,2014-01-21 15:55:00
10:15 AM,50.0,26.6,40,29.88,10.0,NW,17.3,28.8,N/A,,Clear,320,2014-01-21 16:15:00
10:35 AM,50.0,26.6,40,29.88,10.0,NW,17.3,-,N/A,,Clear,320,2014-01-21 16:35:00
10:55 AM,50.0,24.8,37,29.88,10.0,WNW,17.3,26.5,N/A,,Clear,290,2014-01-21 16:55:00
11:15 AM,51.8,24.8,35,29.87,10.0,West,17.3,24.2,N/A,,Clear,280,2014-01-21 17:15:00
11:35 AM,51.8,24.8,35,29.87,10.0,WNW,18.4,26.5,N/A,,Clear,300,2014-01-21 17:35:00
11:55 AM,50.0,24.8,37,29.87,10.0,WNW,20.7,34.5,N/A,,Clear,300,2014-01-21 17:55:00
12:15 PM,51.8,24.8,35,29.87,10.0,WNW,21.9,31.1,N/A,,Scattered Clouds,300,2014-01-21 18:15:00
12:35 PM,51.8,24.8,35,29.86,10.0,NW,16.1,27.6,N/A,,Mostly Cloudy,320,2014-01-21 18:35:00
12:55 PM,46.4,23.0,40,29.87,10.0,WNW,24.2,28.8,N/A,,Mostly Cloudy,300,2014-01-21 18:55:00
1:15 PM,48.2,23.0,37,29.88,10.0,NW,23.0,34.5,N/A,,Mostly Cloudy,310,2014-01-21 19:15:00
1:35 PM,46.4,23.0,40,29.87,10.0,WNW,20.7,31.1,N/A,,Mostly Cloudy,290,2014-01-21 19:35:00
1:55 PM,46.4,24.8,43,29.88,10.0,NNW,23.0,26.5,N/A,,Mostly Cloudy,330,2014-01-21 19:55:00
2:15 PM,46.4,24.8,43,29.89,10.0,WNW,20.7,26.5,N/A,,Scattered Clouds,300,2014-01-21 20:15:00
2:35 PM,44.6,21.2,39,29.89,10.0,NNW,16.1,31.1,N/A,,Mostly Cloudy,330,2014-01-21 20:35:00
2:55 PM,44.6,21.2,39,29.90,10.0,NW,19.6,28.8,N/A,,Scattered Clouds,320,2014-01-21 20:55:00
3:15 PM,42.8,21.2,42,29.92,10.0,NW,18.4,27.6,N/A,,Partly Cloudy,320,2014-01-21 21:15:00
3:35 PM,42.8,21.2,42,29.93,10.0,WNW,23.0,29.9,N/A,,Clear,300,2014-01-21 21:35:00
3:55 PM,42.8,17.6,36,29.94,10.0,NW,16.1,29.9,N/A,,Clear,310,2014-01-21 21:55:00
4:15 PM,41.0,17.6,39,29.95,10.0,NW,17.3,26.5,N/A,,Clear,320,2014-01-21 22:15:00
4:35 PM,39.2,17.6,42,29.96,10.0,NW,19.6,27.6,N/A,,Clear,310,2014-01-21 22:35:00
4:55 PM,37.4,17.6,45,29.99,10.0,NNW,20.7,29.9,N/A,,Clear,330,2014-01-21 22:55:00
5:15 PM,35.6,17.6,48,29.99,10.0,NW,18.4,26.5,N/A,,Clear,310,2014-01-21 23:15:00
5:35 PM,33.8,17.6,52,30.01,10.0,NW,19.6,26.5,N/A,,Clear,320,2014-01-21 23:35:00
5:55 PM,32.0,17.6,55,30.02,10.0,NW,17.3,27.6,N/A,,Clear,320,2014-01-21 23:55:00
6:15 PM,30.2,17.6,60,30.04,10.0,NNW,16.1,26.5,N/A,,Clear,330,2014-01-22 00:15:00
6:35 PM,30.2,15.8,55,30.03,10.0,NNW,13.8,21.9,N/A,,Clear,330,2014-01-22 00:35:00
6:55 PM,30.2,15.8,55,30.04,10.0,NNW,13.8,21.9,N/A,,Clear,330,2014-01-22 00:55:00
7:15 PM,28.4,15.8,59,30.04,10.0,NW,12.7,20.7,N/A,,Clear,320,2014-01-22 01:15:00
7:35 PM,28.4,14.0,55,30.04,10.0,NNW,12.7,21.9,N/A,,Clear,330,2014-01-22 01:35:00
7:55 PM,28.4,14.0,55,30.05,10.0,NW,13.8,20.7,N/A,,Clear,310,2014-01-22 01:55:00
8:15 PM,26.6,14.0,59,30.05,10.0,NW,11.5,21.9,N/A,,Clear,320,2014-01-22 02:15:00
8:35 PM,26.6,14.0,59,30.05,10.0,NW,11.5,20.7,N/A,,Clear,320,2014-01-22 02:35:00
8:55 PM,26.6,12.2,55,30.05,10.0,NW,15.0,21.9,N/A,,Clear,320,2014-01-22 02:55:00
9:15 PM,26.6,12.2,55,30.05,10.0,NW,8.1,-,N/A,,Clear,320,2014-01-22 03:15:00
9:35 PM,26.6,12.2,55,30.06,10.0,NNW,9.2,-,N/A,,Clear,330,2014-01-22 03:35:00
9:55 PM,24.8,12.2,59,30.06,10.0,NNW,5.8,-,N/A,,Clear,340,2014-01-22 03:55:00
10:15 PM,26.6,12.2,55,30.06,10.0,NNW,9.2,-,N/A,,Clear,340,2014-01-22 04:15:00
10:35 PM,24.8,12.2,59,30.06,10.0,NNW,12.7,-,N/A,,Clear,340,2014-01-22 04:35:00
10:55 PM,24.8,12.2,59,30.06,10.0,NNW,11.5,16.1,N/A,,Clear,330,2014-01-22 04:55:00
11:15 PM,24.8,12.2,59,30.06,10.0,NNW,11.5,-,N/A,,Clear,330,2014-01-22 05:15:00
11:35 PM,24.8,10.4,54,30.06,10.0,NNW,11.5,21.9,N/A,,Clear,330,2014-01-22 05:35:00
11:55 PM,24.8,10.4,54,30.07,10.0,NNW,15.0,19.6,N/A,,Clear,330,2014-01-22 05:55:00